Location: Sungai Bunut
(2.6333°N, 113.7333°E)
Time: 09:37:04
(UTC+00:00)

Courier 1B - Pass Details

Date: 03 December 2023
Orbit: 962 x 1209 km, 28.3° (Epoch: 03 March)

Event Time Altitude Azimuth Distance (km) Brightness Sun altitude
Rises 21:05:59 0° 226° (SW) 4,060 10.5 -16.9°
Reaches altitude 10° 21:09:04 10° 219° (SW) 3,069 9.9 -16.2°
Maximum altitude 21:16:07 41° 151° (SSE) 1,569 9.0 -14.6°
Drops below altitude 10° 21:22:45 10° 83° (E) 2,899 11.0 -13.1°
Sets 21:25:35 0° 76° (ENE) 3,815 11.5 -12.4°
